Location: Asheville, NC
(35.6000°N, 82.5500°W)
Time: 02:40:13
(UTC-04:00)

Vanguard 3 - Pass Details

Date: 08 March 2018
Orbit: 508 x 3264 km, 33.3° (Epoch: 20 June)

Event Time Altitude Azimuth Distance (km) Brightness Sun altitude
Rises 12:52:50 0° 266° (W) 6,421 11.8 49.6°
Reaches altitude 10° 12:57:43 10° 266° (W) 5,013 11.4 49.5°
Maximum altitude 13:10:49 79° 183° (S) 1,532 9.8 49.1°
Drops below altitude 10° 13:17:52 10° 97° (E) 2,833 10.0 48.8°
Sets 13:19:56 0° 96° (E) 3,544 10.4 48.7°
